Regional Weather Roundup
Issued by NWS

Home | Current Version | Previous Version | Graphics & Text | Print | Product List | Glossary On
Versions: 1 2 3 4 5 6 7 8 9 10 11 12 13 14 15 16 17 18 19 20 21 22 23 24 25 26 27
000
ASUS45 KTFX 181510
RWRMT
MONTANA REGIONAL WEATHER ROUNDUP
NATIONAL WEATHER SERVICE GREAT FALLS MT
800 AM MST SAT NOV 18 2017

NOTE: "FAIR" INDICATES FEW OR NO CLOUDS BELOW 12000 FEET WITH NO
SIGNIFICANT WEATHER AND/OR OBSTRUCTIONS TO VISIBILITY.

MTZ001>007-043-181600-
WEST OF THE DIVIDE

CITY           SKY/WX    TMP DP  RH WIND       PRES   REMARKS
KALISPELL      CLOUDY    35  26  69 SW5       30.24R
MISSOULA       CLOUDY    35  25  66 CALM      30.28S
BUTTE          MOCLDY    20  10  65 E6        30.25R WCI  12
MULLAN PASS    CLOUDY    22  20  92 VRB6      30.19S WCI  14
ANACONDA         N/A     28  14  54 S15       30.26R WCI  17
DEER LODGE       N/A     28  19  69 S5        30.26S
EUREKA           N/A     37  21  52 MISG      30.23S
HAMILTON         N/A     36  18  48 S8        30.30R WCI  29
LIBBY            N/A     32  27  80 CALM      30.24R
RONAN            N/A     35  24  64 E1        30.28R
$$

MTZ008-052>055-181600-
SOUTHWEST MONTANA

CITY           SKY/WX    TMP DP  RH WIND       PRES   REMARKS
BOZEMAN        FAIR      26  15  63 N10       30.27R WCI  16
DILLON         FAIR      23  10  57 S10       30.29R WCI  12
W YELLOWSTONE  CLOUDY    18  16  93 SW15      30.30R WCI   3
ENNIS          CLOUDY    23  12  63 S9        30.34R WCI  13
TWIN BRIDGES     N/A     23   8  52 CALM      30.25R
$$

MTZ009-010-012-014-046-048-049-054-181600-
EAST SLOPES AND CENTRAL MONTANA

CITY           SKY/WX    TMP DP  RH WIND       PRES   REMARKS
CUT BANK       FAIR      28  20  71 SW7       30.06R WCI  21
GREAT FALLS    FAIR      33  18  53 SW22      30.11R WCI  21
MALMSTROM AFB  FAIR      35  20  54 SW25G31   30.12R WCI  22
HELENA         CLOUDY    35  18  49 SW10      30.23R WCI  27
BOWMANS CRNR   FAIR      29  21  71 SW18G25   30.11R WCI  17
CHOTEAU          N/A     30  18  59 SW8       30.11S WCI  23
FAIRFIELD      FAIR      30  20  65 SW16      30.10R WCI  19
POWER          FAIR      30  21  68 SW17      30.09R WCI  18
RAYNESFORD     FAIR      35  17  48 SW25G38   30.10R WCI  22
ULM            FAIR      35  19  52 SW21G32   30.15R WCI  24
$$

MTZ011-013-016-021-045-047-050-051-181600-
NORTH CENTRAL MONTANA

CITY           SKY/WX    TMP DP  RH WIND       PRES   REMARKS
HAVRE          FAIR      13  10  88 W8        30.09R WCI   2
LEWISTOWN      CLOUDY    31  19  61 W10       30.11R WCI  22
N BAR RANCH    CLOUDY    30  18  59 NW12      30.11R WCI  21
CHINOOK          N/A     10   5  79 CALM      30.11S
DENTON         MOCLDY    35  20  53 SW15      30.08R WCI  25
GEYSER         FAIR      32  19  58 W30G37    30.07R WCI  18
GRASS RANGE    MOCLDY    33  19  56 W14       30.07R WCI  23
STANFORD       FAIR      33  18  54 W24G35    30.08R WCI  20
WINIFRED       MOCLDY    33  20  60 W13       30.09R WCI  23
$$

MTZ017>020-022>027-061-062-181600-
NORTHEAST MONTANA

CITY           SKY/WX    TMP DP  RH WIND       PRES   REMARKS
GLASGOW        CLOUDY    14  11  87 CALM      30.12R
GLENDIVE       FAIR      17  11  77 SW5       30.13R
JORDAN           N/A     22  18  85 E3        30.10S
SIDNEY         FAIR      14   9  80 W5        30.15R
WOLF POINT     CLOUDY    14   9  80 SW7       30.15R WCI   4
MALTA          CLOUDY    16  12  86 W7        30.12S WCI   6
PLENTYWOOD       N/A     10   5  79 CALM      30.10R
POPLAR           N/A     12   9  85 SW5       30.15R
SCOBEY           N/A      6  -5  60 CALM      30.06
$$

MTZ028>42-056>058-181600-
SOUTHCENTRAL AND SOUTHEAST MONTANA

CITY           SKY/WX    TMP DP  RH WIND       PRES   REMARKS
BAKER          FAIR      17  15  92 W7        30.11R WCI   8
BILLINGS       MOCLDY    30  16  56 SW17      30.15R WCI  18
LIVINGSTON     FAIR      32  13  45 W31G43    30.16F WCI  17
MILES CITY     CLOUDY    25  23  92 NW3       30.13R
FORSYTH          N/A     34  19  55 SW10      30.14R WCI  26
HARLOWTON      MOCLDY    30  18  60 W33G43    30.09F WCI  14
LAUREL           N/A     30  16  55 SW7       30.18R WCI  23
ROUNDUP          N/A     34  14  43 SW16      30.02R WCI  24
$$

REGIONAL REPORTS...DAKOTAS

CITY           SKY/WX    TMP DP  RH WIND       PRES   REMARKS
WILLISTON      FAIR      14   9  80 W8        30.13R WCI   3
MINOT          FAIR      15   7  70 W22G28    30.06R WCI  -3
DICKINSON      FAIR      14  10  84 W8        30.08R WCI   3
BEACH          FAIR      14  10  85 W9        30.12S WCI   2
CROSBY         CLOUDY    10   9  92 W13G20    30.11R WCI  -5
TIOGA          CLOUDY    12  10  92 W15G23    30.09R WCI  -4
WATFORD CITY   FAIR      14   9  79 W10       30.11S WCI   1
BISMARCK       FAIR      22  17  81 W9        30.10R WCI  12
GRAND FORKS    FAIR      17  11  77 NW13      30.00R WCI   4
FARGO          FAIR      21  13  71 NW18      30.00R WCI   6
BUFFALO SD       N/A     25  21  85 NW14      30.04R WCI  13
RAPID CITY     FAIR      36  18  48 NW14      30.12R WCI  27
$$

REGIONAL REPORTS...WYOMING/IDAHO/WASHINGTON

CITY           SKY/WX    TMP DP  RH WIND       PRES   REMARKS
GILLETTE       FAIR      28  15  58 W10       30.15R WCI  19
SHERIDAN       FAIR      27  16  63 NE5       30.16R
BUFFALO WY     FAIR      24   6  46 W5        30.15R
CODY           FAIR      32   9  38 W16G30    30.17R WCI  21
YELLOWSTONE LA   N/A      5   2  87 VRB3      30.28R
IDAHO FALLS    FAIR      25  21  85 S12       30.40R WCI  14
SALMON         FAIR      22  16  78 N3        30.38R
BOISE          FAIR      31  23  72 SE10      30.40R WCI  22
SPOKANE        CLOUDY    33  32  96 S7        30.30R WCI  27
$$

REGIONAL REPORTS...ALBERTA

CITY           SKY/WX    TMP DP  RH WIND       PRES   REMARKS
EDMONTON       CLEAR     10   5  79 SW8       29.88S WCI  -1
CALGARY        MOCLDY    23  12  63 S6        29.93S WCI  16
LETHBRIDGE     MOCLDY    34  21  60 W29G36    29.99S WCI  20
MEDICINE HAT   PTCLDY    14   9  79 SW8       30.03R WCI   3
$$

REGIONAL REPORTS...SASKATCHEWAN

CITY           SKY/WX    TMP DP  RH WIND       PRES   REMARKS
SWIFT CURRENT  CLEAR      9   3  78 SW13      29.98S WCI  -7
REGINA         MOCLDY     1  -2  85 SW8       30.05R WCI -12
SASKATOON      MOCLDY    -4  -8  84 SW8       30.03F WCI -19
$$




USA.gov is the U.S. government's official web portal to all federal, state and local government web resources and services.